User: anonymous   Login
Location: *
(34.6780°N, 135.8310°E)
Time: 09:36:58
(UTC+00:00)
Language:

Cosmos 1726 - Orbit

View from above orbital plane
View from above orbital plane
View from above satellite
View from above satellite

Ground track
Ground track

The orbit data is extracted from the following two-line orbital elements,

1 16495U 86006A   19340.77268486 +.00000652 +00000-0 +24943-4 0  9999
2 16495 082.4742 244.9896 0011081 269.3947 090.6020 15.24711169853546
Epoch (UTC): 06 December 2019 18:32:39
Eccentricity: 0.0011081
inclination: 82.4742°
perigee height: 484 km
apogee height: 499 km
right ascension of ascending node: 244.9896°
argument of perigee: 269.3947°
revolutions per day: 15.24711169
mean anomaly at epoch: 90.6020°
orbit number at epoch: 85354

The dashed part of the orbit path shows where the satellite is in the earth's shadow,  

DLR